Skip Page Navigation
NASA JPL Caltech
NASA Logo - Jet Propulsion Laboratory + View the NASA Portal
+ Near-Earth Object (NEO) Program
Search JPL
JPL Home Earth Solar System Stars & Galaxies Technology
JPL Solar System Dynamics
BODIES ORBITS EPHEMERIDES TOOLS PHYSICAL DATA DISCOVERY FAQ SITE MAP
JPL Small-Body Database Browser
Search: [ help ]  
17692 (1997 CX27)
Classification: Main-belt Asteroid          SPK-ID: 2017692
Ephemeris | Orbit Diagram | Orbital Elements | Physical Parameters | Discovery Circumstances | Close-Approach Data ]

[ show orbit diagram ]
Orbital Elements at Epoch 2456800.5 (2014-May-23.0) TDB
Reference: JPL 8 (heliocentric ecliptic J2000)
 Element Value Uncertainty (1-sigma)   Units 
e .1680280832141587 6.6904e-08  
a 3.114369913837404 4.0343e-08 AU
q 2.591068306795461 2.0964e-07 AU
i 5.772484239029832 6.8121e-06 deg
node 136.4709155975719 7.1527e-05 deg
peri 270.6864666246076 7.5368e-05 deg
M 123.8384689629703 2.5079e-05 deg
tp 2456109.931454203622
(2012-Jul-01.43145420)
0.00013281 JED
period 2007.491521564539
5.50
3.9007e-05
1.068e-07
d
yr
n .1793282791647528 3.4845e-09 deg/d
Q 3.637671520879348 4.7122e-08 AU
  Orbit Determination Parameters
   # obs. used (total)      890  
   data-arc span      7625 days (20.88 yr)  
   first obs. used      1993-05-23  
   last obs. used      2014-04-08  
   planetary ephem.      DE431  
   SB-pert. ephem.      SB431-BIG16  
   condition code      0  
   fit RMS      .54101  
   data source      ORB  
   producer      Otto Matic  
   solution date      2014-Apr-17 14:11:10  

Additional Information
 Earth MOID = 1.60779 AU 
 T_jup = 3.188 
[ show covariance matrix ]

Ephemeris | Orbit Diagram | Orbital Elements | Physical Parameters | Discovery Circumstances | Close-Approach Data ]

Physical Parameter Table
Parameter Symbol Value Units Sigma Reference Notes
absolute magnitude H 13.3 mag n/a MPO263505  

17692 (1997 CX27)          Discovered 1997-Feb-06 by Beijing Schmidt CCD Asteroid Program at Xinglong (327)
Reference: 20001013/Numbers.arcLast Updated: 2004-04-19

[ show close-approach data ]
Alternate Designations
 1997 CX27 = 1998 HG63 
Ephemeris | Orbit Diagram | Orbital Elements | Physical Parameters | Discovery Circumstances | Close-Approach Data ]
ABOUT SSD CREDITS/AWARDS PRIVACY/COPYRIGHT GLOSSARY LINKS
FirstGov 2014-Apr-25 06:42 UT
(server date/time)  
NASA Home Page
Site Manager:   Donald K. Yeomans
Webmaster  Alan B. Chamberlin